Погода в Хамис-Мушаите

Саудовская Аравия     18°18′07″N   42°41′19″E
темп.,
°C
ветер,
м/с
пор.,
м/с
влажн.,
%
обл.,
%
осадки,
мм/ч
давл.,
гПа
погр.,
м
12 августа, пт
пт1200:00+23ю115497 0.2 100814
03:00+22ююз3360100 0.2 100872
06:00+21юз3365100 0.1 100976
09:00+22юз226034 0.5 1010387
12:00+28ссв282966 0.7 10072843
15:00+25ю455099 2.7 10061125
18:00+24сз3652100 1.7 1007767
21:00+21ююз6678100 2.4 1010196
13 августа, сб
сб1300:00+21юз337299 0.0 1009112
03:00+20зюз227479 0.1 100839
06:00+20зюз117399 0.3 100811
09:00+25с9114110 0.3 10081166
12:00+29ссв9112271 0.0 10053376
15:00+30ссв781927 0.2 10033729
18:00+28св5826100 1.0 1003920
21:00+24з1355100 1.8 1007123
14 августа, вс
вс1400:00+24зюз124299 0.2 100773
03:00+21зсз2469100 0.3 1007133
06:00+21зюз015729 0.1 100722
09:00+25с9123597 0.1 10081521
12:00+28ссв9825100 0.1 10062376
15:00+29св7821100 0.4 10033142
18:00+24зюз665497 1.5 1006499
21:00+21ююз667443 2.4 1009224
15 августа, пн
пн1500:00+20юз2382100 0.4 1009125
03:00+20з117096 1.5 100718
06:00+19с237091 0.3 100949
09:00+24с664090 0.3 1009803
12:00+27с35269 0.0 10072628
15:00+27з263195 0.9 10052686
18:00+22зюз666586 2.0 1008444
21:00+21ююз447778 2.8 1010233
16 августа, вт
вт1600:00+20ююз337558 1.0 1010141
03:00+21юз2369100 1.6 1009129
06:00+20ю33675 0.6 101059
09:00+23сз24445 0.6 10091022
12:00+27сз263097 0.2 10062948
15:00+22юз7760100 1.3 1007546
18:00+23зюз445783 0.9 1007622
21:00+23з2459100 1.7 1009503